Other Public Products
Issued by NWS Grand Forks, ND

Home | Current Version | Previous Version | Text Only | Print | Product List | Glossary On
Versions: 1 2 3 4 5 6 7 8 9 10 11 12 13 14 15 16 17 18 19 20 21 22 23 24 25 26 27 28 29 30 31 32 33 34 35 36 37 38 39 40 41 42 43 44 45 46 47 48 49 50
000
FPUS83 KFGF 250931
OPUFGF
PRAIRIE TO PINES WEATHER ROUNDUP
NATIONAL WEATHER SERVICE EASTERN NORTH DAKOTA/GRAND FORKS ND
300 AM CST THU DEC 25 2014

 **SATELLITE DATA USED TO AUGMENT SKY COVER AT AUTOMATED STATIONS**
 *****  WEATHER ACROSS EASTERN NORTH DAKOTA  *****

CITY           SKY/WX    TMP DP  RH WIND       PRES   REMARKS
GRAND FORKS    CLOUDY    28  25  88 NW8       29.50R WCI  20
GRAND FORKS AF CLOUDY    28  27  99 NW7       29.51R WCI  20
GRAND CITY NWS   N/A     28 N/A N/A N6          N/A  WCI  22
BUXTON           N/A     26  25  97 W5          N/A  WCI  20
DEVILS LAKE    CLOUDY    21  18  86 NW8       29.51R WCI  12
FARGO          MOCLDY    26  24  92 SW7       29.51R WCI  18
WAHPETON ARPT  CLOUDY    30  28  93 S5        29.55R
$$

 *****  WEATHER ACROSS CENTRAL AND WESTERN NORTH DAKOTA  *****

CITY           SKY/WX    TMP DP  RH WIND       PRES   REMARKS
JAMESTOWN      CLOUDY    26  22  84 NW9       29.50R WCI  17
BISMARCK       CLOUDY    27  24  89 CALM      29.55R
MINOT          PTCLDY    27  21  78 W15       29.51R WCI  15
MINOT AFB      CLOUDY    26  26  99 NW13      29.52R WCI  15
GARRISON         N/A     20  17  88 NW9       29.53R WCI   9
WILLISTON      CLOUDY    25  20  81 VRB3      29.60R
DICKINSON      CLOUDY    27  23  85 NW8       29.53R WCI  19
HETTINGER      CLOUDY    29  26  89 NW3       29.55R
$$

 *****  OTHER OBSERVATIONS NORTHEAST NORTH DAKOTA  *****

CITY           SKY/WX    TMP DP  RH WIND       PRES   REMARKS
WALHALLA         N/A     28  28 100 W8        29.48R WCI  20
LANGDON          N/A     23  21  93 W10       29.47R WCI  12
CAVALIER       CLOUDY    28  27  93 W7        29.49R WCI  21
GRAFTON        NOT AVBL
CANDO          CLOUDY    21  19  93 NW9       29.51R WCI  11
FORT TOTTEN    NOT AVBL
ROLLA          PTSUNNY   23  23 100 NW14G21   29.50R WCI  11
RUGBY          FAIR      16  16 100 NW10      29.52R WCI   3
 ***** THE ABOVE OBSERVATIONS ARE NON NWS ARE NOT QUALITY
        CONTROLLED AND MAY MIS-REPORT RAIN FOR SNOW...
$$

 *****  OTHER OBSERVATIONS SOUTHEAST NORTH DAKOTA *****

CITY           SKY/WX    TMP DP  RH WIND       PRES   REMARKS
COOPERSTOWN    NOT AVBL
VALLEY CITY    FAIR      25  25 100 NW13      29.51R WCI  13
OAKES            N/A     27  27 100 SW6       29.53R WCI  20
GWINNER        SUNNY     28  28 100 CALM      29.53R
BUFFALO        NOT AVBL
WYNDMERE         N/A     27  27 100 SW5         N/A  WCI  21
 ***** THE ABOVE OBSERVATIONS ARE NON NWS ARE NOT QUALITY
       CONTROLLED AND MAY MIS-REPORT RAIN FOR SNOW...
$$

  *****  WEATHER ACROSS NORTHERN MINNESOTA  *****

CITY           SKY/WX    TMP DP  RH WIND       PRES   REMARKS
FLAG ISLAND    CLOUDY    28  27  93 SW7       29.41S FOG     WCI  21
WARROAD        CLOUDY    28  25  86 SW5       29.44R WCI  23
ROSEAU         CLOUDY    30  27  86 SW7       29.44R WCI  23
HALLOCK        CLOUDY    30  27  86 W7        29.47R WCI  23
THF RVR FALLS  CLOUDY    28  27  93 SW10      29.47R WCI  19
HALSTAD          N/A     28  25  89 W6          N/A  WCI  21
FOSSTON        CLOUDY    27  27 100 SW12      29.49R WCI  16
BAUDETTE       CLOUDY    29  26  89 SW8       29.43R WCI  21
WASKISH        CLOUDY    30  28  93 SW9G16    29.46R WCI  22
CROOKSTON      CLOUDY    28  27  93 NW12      29.51R WCI  18
$$
  *****  WEATHER ACROSS CENTRAL AND WEST MINNESOTA  *****

CITY           SKY/WX    TMP DP  RH WIND       PRES   REMARKS
BEMIDJI        CLOUDY    28  26  92 SW8       29.48R WCI  20
PARK RAPIDS    CLOUDY    30  26  85 SW14      29.48R WCI  19
WADENA         CLOUDY    28  27  93 SW8       29.51R WCI  20
DETROIT LAKES  CLOUDY    30  30 100 SW7       29.51S WCI  23
MOORHEAD       MOCLDY    28  28 100 S6        29.53R WCI  22
FERGUS FALLS   CLOUDY    28  28 100 SW10      29.57R FOG     WCI  19
ELBOW LAKE     CLOUDY    28  27  96 S9        29.54R WCI  19
MORRIS MN      CLOUDY    28  27  93 S7        29.54R WCI  21
STAPLES        CLOUDY    28  27  93 SW8       29.52S WCI  20
WHEATON        CLOUDY    28  27  93 S5        29.57R WCI  23
$$
  *****  WEATHER ELSEWHERE ACROSS MINNESOTA  *****

CITY           SKY/WX    TMP DP  RH WIND       PRES   REMARKS
DULUTH         CLOUDY    31  27  85 SW12      29.49R WCI  22
INTRNTL FALLS  CLOUDY    30  26  85 W8        29.43S WCI  22
ELY            CLOUDY    30  28  93 SW5       29.45S
CLOQUET        FLURRIES  30  27  86 SW7       29.51S WCI  23
BRAINERD       CLOUDY    30  27  88 S13       29.53R WCI  20
HIBBING        CLOUDY    31  27  85 SW7       29.48R WCI  24
ALEXANDRIA     MOCLDY    28  25  88 SW10      29.54R FOG     WCI  19
SAINT CLOUD    MOCLDY    32  27  81 S12       29.57S WCI  23
MINNEAPOLIS    CLOUDY    30  25  81 SW8       29.63R WCI  22
$$

  *****  WEATHER ACROSS SOUTH DAKOTA  *****

CITY           SKY/WX    TMP DP  RH WIND       PRES   REMARKS
SIOUX FALLS    PTCLDY    27  24  89 S8        29.54F WCI  19
BROOKINGS      NOT AVBL
WATERTOWN      CLOUDY    27  24  89 S6        29.51R WCI  20
HURON          CLOUDY    25  23  92 SE5       29.52S WCI  19
SISSETON         N/A     31  26  82 SW6       29.53R
ABERDEEN       CLOUDY    29  25  85 CALM      29.53R
MITCHELL       MOCLDY    26  24  92 CALM      29.54R
PIERRE         CLOUDY    29  25  85 N7        29.49R WCI  22
MOBRIDGE       CLOUDY    30  27  88 N5        29.50R
RAPID CITY     LGT SNOW  31  29  92 N10       29.49R FOG     WCI  22
$$

  *****  SOME WEATHER IN NEARBY STATES *****

CITY           SKY/WX    TMP DP  RH WIND       PRES   REMARKS
GLASGOW MT     CLOUDY    28  22  78 NW10      29.65R WCI  19
GREAT FALLS MT MIX PCPN  25  23  93 N9        29.71R WCI  15
CHEYENNE WY    CLOUDY    31  18  58 CALM      29.42F
SCOTTSBLUFF NE CLOUDY    36  27  69 E5        29.43R
OMAHA NE       PTCLDY    30  27  88 S12       29.67S WCI  20
DES MOINES IA  PTCLDY    32  28  85 S9        29.75R WCI  24
DAVENPORT IA   CLOUDY    32  27  81 W20       29.80R WCI  20
CHICAGO IL     CLOUDY    35  29  78 W12       29.75R
EAU CLAIRE WI  CLOUDY    32  27  81 SW13      29.63R WCI  22
LA CROSSE WI   CLOUDY    34  28  79 SW7       29.69R
$$

  *****  SOME NATIONAL WEATHER *****

CITY           SKY/WX    TMP DP  RH WIND       PRES   REMARKS
LA GUARDIA NY  CLOUDY    61  59  93 SW14G23   29.48F
RALEIGH NC     CLOUDY    59  53  80 SW14      29.74R
ATLANTA GA     MOCLDY    43  36  76 W8        30.01R
NEW ORLEANS LA CLEAR     42  36  79 W5        30.17R
OKLAHOMA CITY  PTCLDY    34  25  69 S10       29.83F
ALBUQUERQUE NM CLOUDY    32  11  41 SE6       29.80F
SALT LAKE CITY LGT SNOW  33  32  96 N9        29.49R FOG
LOS ANGELES CA PTCLDY    58  54  86 NW5       29.79F
BOISE ID       CLOUDY    32  25  75 NW23G30   29.72R WCI  19
SEATTLE WA     MOCLDY    39  37  93 SE5       30.07R
$$

*** WEATHER ACROSS MANITOBA...SASKATCHEWAN AND ONTARIO ***
                ***ONTARIO***

CITY           SKY/WX    TMP DP  RH WIND       PRES   REMARKS
GERALDTON      LGT SNOW  21  19  93 NW2       29.38F
THUNDER BAY    FLURRIES  27  27 100 SW5       29.47R WCI  21
SIOUX LOOKOUT  LGT SNOW  27  27 100 S2        29.40F SMOKE
TORONTO        MOCLDY    39  34  81 SW26G37   29.43R
BIG TROUT LK   LGT SNOW  21  21 100 E3        29.48S
PICKLE LAKE    NOT AVBL
DRYDEN         FLURRIES  28  28 100 SW9       29.40R WCI  20
KENORA         LGT SNOW  27  27 100 SW7       29.40R WCI  19
$$
                *** MANITOBA***

CITY           SKY/WX    TMP DP  RH WIND       PRES   REMARKS
BRANDON        FLURRIES  27  23  86 NW16      29.49R WCI  14
DAUPHIN        CLOUDY    23  21  93 NW12      29.53R WCI  12
ISLAND LAKE    FLURRIES  21  19  93 N5        29.47R WCI  15
PILOT MOUND      N/A     23  21  93 W9          N/A  WCI  13
THE PAS        CLOUDY    21  19  93 NW8       29.58R WCI  12
THOMPSON       LGT SNOW  16  14  93 N3        29.56
WINNIPEG       CLOUDY    28  25  86 W13       29.45R WCI  18
CHURCHILL      FLURRIES  16  16 100 S5        29.64R WCI   9
GILLAM         LGT SNOW  18  16  93 NE3       29.58R
$$
                ***SASKATCHEWAN***

CITY           SKY/WX    TMP DP  RH WIND       PRES   REMARKS
ESTEVAN        FLURRIES  28  25  86 NW16      29.55R WCI  17
KINDERSLEY     CLOUDY    18  14  86 N15       29.75R WCI   3
LLOYDMINSTER   FLURRIES   9   5  85 N16G22    29.80R WCI  -9
PRINCE ALBERT  LGT SNOW  19  16  86 N13       29.69R WCI   7
REGINA         FLURRIES  23  21  93 NW17      29.61R WCI   9
YORKTON        CLOUDY    23  21  93 NW13      29.55R WCI  11
N. BATTLEFORD  CLOUDY    16  12  86 NW16      29.78R WCI   0


USA.gov is the U.S. government's official web portal to all federal, state and local government web resources and services.